36.52977, -87.35945

Hourly Observations for October 20, 2018

Temp ( °F °C ) Dew Point ( °F °C ) Humidity (%) Winds ( mph kmh ) Pressure ( in mb ) Visibility ( mi km ) Precip ( " mm )
12:52 am 00:52 Cloudy 30 -1.1 22 -5.6 72 72 NNW 21 33 29.94 1014 10 16.09344 0.001 0.001
1:52 am 01:52 Cloudy 30 -1.1 22 -5.6 72 72 NNW 23 37 29.97 1015 10 16.09344 0 0
2:52 am 02:52 Cloudy 28 -2.2 18 -7.8 66 66 NNW 23 37 30 1016 10 16.09344 0 0
3:11 am 03:11 Cloudy 28 -2.2 18 -7.8 66 66 NNW 25 41 30.09 1019 10 16.09344 0 0
3:41 am 03:41 Cloudy 28 -2.2 21 -6.1 75 75 NNW 21 33 30.09 1019 10 16.09344 0 0
3:52 am 03:52 Cloudy 28 -2.2 21 -6.1 75 75 NNW 20 31 30.06 1018 10 16.09344 0 0
4:52 am 04:52 Cloudy 27 -2.8 20 -6.7 75 75 NW 21 33 30.09 1019 10 16.09344 0 0
5:52 am 05:52 Cloudy 26 -3.3 19 -7.2 75 75 NNW 16 26 30.15 1021 10 16.09344 0 0
6:52 am 06:52 Cloudy 24 -4.4 17 -8.3 75 75 NNW 15 24 30.18 1022 10 16.09344 0 0
7:52 am 07:52 Cloudy 24 -4.4 15 -9.4 68 68 NNW 16 26 30.21 1023 10 16.09344 0 0
8:52 am 08:52 Cloudy 23 -5 15 -9.4 72 72 NNW 15 24 30.24 1024 10 16.09344 0 0
9:52 am 09:52 Cloudy 23 -5 14 -10 68 68 NNW 15 24 30.27 1025 10 16.09344 0.001 0.001
10:52 am 10:52 Mostly Cloudy 24 -4.4 15 -9.4 68 68 NNW 15 24 30.27 1025 10 16.09344 0 0
11:52 am 11:52 Mostly Cloudy 25 -3.9 14 -10 63 63 NNW 15 24 30.27 1025 10 16.09344 0 0
12:52 pm 12:52 Mostly Cloudy 26 -3.3 15 -9.4 63 63 NNW 13 20 30.27 1025 10 16.09344 0 0
1:01 pm 13:01 Partly Cloudy 25 -3.9 15 -9.4 66 66 NNW 13 20 30.3 1026 10 16.09344 0 0
1:25 pm 13:25 Mostly Cloudy 25 -3.9 14 -10 63 63 NW 14 22 30.3 1026 10 16.09344 0 0
1:52 pm 13:52 Mostly Cloudy 25 -3.9 14 -10 63 63 NW 8 13 30.27 1025 10 16.09344 0 0
2:31 pm 14:31 Partly Cloudy 25 -3.9 14 -10 63 63 N 10 17 30.3 1026 10 16.09344 0 0
2:52 pm 14:52 Mostly Sunny 25 -3.9 13 -10.6 60 60 NNE 9 15 30.27 1025 10 16.09344 0 0
3:52 pm 15:52 Mostly Cloudy 26 -3.3 14 -10 60 60 N 10 17 30.3 1026 10 16.09344 0 0
4:52 pm 16:52 Cloudy 25 -3.9 13 -10.6 60 60 NNW 9 15 30.33 1027 10 16.09344 0 0
5:52 pm 17:52 Cloudy 24 -4.4 13 -10.6 62 62 N 12 19 30.36 1028 10 16.09344 0 0
6:52 pm 18:52 Cloudy with Light Snow 23 -5 15 -9.4 72 72 N 12 19 30.39 1029 3 4.828032 0.001 0.001
7:52 pm 19:52 Mostly Cloudy 22 -5.6 15 -9.4 75 75 N 9 15 30.39 1029 9 14.484096 0.001 0.001
8:52 pm 20:52 Cloudy 22 -5.6 15 -9.4 75 75 NNE 8 13 30.39 1029 10 16.09344 0 0
9:52 pm 21:52 Cloudy 22 -5.6 15 -9.4 75 75 undefined N/A 30.39 1029 10 16.09344 0 0
10:52 pm 22:52 Cloudy 21 -6.1 15 -9.4 78 78 NE 10 17 30.42 1030 10 16.09344 0 0
11:27 pm 23:27 Cloudy 21 -6.1 14 -10 74 74 NNE 8 13 30.42 1030 10 16.09344 0 0
11:52 pm 23:52 Cloudy 21 -6.1 14 -10 74 74 NE 8 13 30.42 1030 10 16.09344 0 0

Powered by AerisWeather